sat.trackr.live / text

‹ back to catalog

STARLINK-36223

NORAD 67126 · 2025-299AA

PAYLOAD ACTIVE UNKNOWN

§ Identity

Operator
Country
US
Launch date
2025-12-15
Launch site
AFETR
Launch vehicle
Mass (kg)
RCS (m²)

Purposes: comms

External: N2YO · Heavens-Above · Gunter

§ Orbital elements

Epoch: 2026-05-24T21:42:52.873632Z

Period
94.27 min
Inclination
43.0005°
Eccentricity
0.0001369
Mean motion
15.27554834 rev/d
Perigee alt
482.2 km
Apogee alt
484.1 km
Semi-major
6,861.3 km
B*
-2.6428e-4
RAAN
98.4469°
Arg perigee
247.7711°
Mean anomaly
112.2995°
Rev number
2,477

§ Raw data

STARLINK-362231 67126U 25299AA  26144.90477863 -.00007521  00000+0 -26428-3 0  99912 67126  43.0005  98.4469 0001369 247.7711 112.2995 15.27554834 24777

JSON: /api/v1/satellites/67126 · /tle

For live sub-satellite position, see the globe view (requires WebGL).

§ Visibility from observer

Set your observer location to see the next 7 days of passes ≥ 10°. The values pass through the URL so the page stays shareable.

No JS? Fill the form by hand. The geolocation button needs JavaScript.